Retour au catalogue

IRIDIUM 168

ActifCommunicationsPO
NORAD 43924·PAYLOAD·🇺🇸 United States

Lancé Jan 11, 2019 depuis Vandenberg Space Force Base

Loading…

Prochains Passages (prochaines 24 heures)

TLE

FraisSource: CelesTrak SupGP

Époque: Sep 14, 2026, 21:03 UTC

1 43924C 19002C   26257.87743056 -.00001227  00000+0 -43856-3 0  2575
2 43924  86.3978 316.2070 0002322  96.7148  35.0141 14.34217604    15

Suivez IRIDIUM 168 en temps réel avec AllMySat

Download on the App Store